sat.trackr.live / text

‹ back to catalog

LATINSAT A

NORAD 27612 · 2002-058H

PAYLOAD ACTIVE UNKNOWN

§ Identity

Operator
Country
ARGN
Launch date
2002-12-20
Launch site
TYMSC
Launch vehicle
Mass (kg)
RCS (m²)
0.03

External: N2YO · Heavens-Above · Gunter

§ Orbital elements

Epoch: 2026-09-13T03:24:51.223392Z

Period
96.93 min
Inclination
64.5544°
Eccentricity
0.0047675
Mean motion
14.85599183 rev/d
Perigee alt
578.4 km
Apogee alt
645.0 km
Semi-major
6,989.8 km
B*
8.9484e-5
RAAN
48.4639°
Arg perigee
234.6042°
Mean anomaly
125.0607°
Rev number
28,069

§ Raw data

LATINSAT A1 27612U 02058H   26256.14225953  .00000636  00000+0  89484-4 0  99962 27612  64.5544  48.4639 0047675 234.6042 125.0607 14.85599183280691

JSON: /api/v1/satellites/27612 · /tle

For live sub-satellite position, see the globe view (requires WebGL).

§ Visibility from observer

Set your observer location to see the next 7 days of passes ≥ 10°. The values pass through the URL so the page stays shareable.

No JS? Fill the form by hand. The geolocation button needs JavaScript.